Location: Eimen
(51.8766°N, 9.7806°E)
Time: 09:34:51
(UTC+00:00)

Cosmos 1346 Rocket - Pass Details

Date: 23 May 2024
Orbit: 507 x 521 km, 81.2° (Epoch: 23 June)

Event Time Altitude Azimuth Distance (km) Brightness Sun altitude
Rises 00:38:12 0° 342° (NNW) 2,664 7.2 -15.4°
Reaches altitude 10° 00:40:25 10° 336° (NNW) 1,772 6.1 -15.3°
Maximum altitude 00:44:07 44° 264° (W) 736 3.2 -15.1°
Enters shadow 00:45:41 28° 211° (SSW) 1,000 3.5 -15.0°
